Time,TemperatureF,DewpointF,PressureIn,WindDirection,WindDirectionDegrees,WindSpeedMPH,WindSpeedGustMPH,Humidity,HourlyPrecipIn,Conditions,Clouds,dailyrainin,SoftwareType,DateUTC
2013-03-18 07:45:00,27.9,20.7,29.95,ESE,112,6.0,23.0,74,0.00,,---,0.00,VWS V14.00,2013-03-18 11:45:00,
2013-03-18 08:00:00,28.3,21.1,29.94,ESE,116,7.0,8.0,74,0.00,,---,0.00,VWS V14.00,2013-03-18 12:00:00,
2013-03-18 08:05:00,28.4,21.2,29.94,SSE,156,5.0,19.0,74,0.00,,---,0.00,VWS V14.00,2013-03-18 12:05:00,
2013-03-18 08:10:00,28.5,21.3,29.94,SE,125,4.0,19.0,74,0.00,,---,0.00,VWS V14.00,2013-03-18 12:10:00,
2013-03-18 08:15:00,28.6,21.4,29.94,ESE,119,16.0,16.0,74,0.00,,---,0.00,VWS V14.00,2013-03-18 12:15:00,
2013-03-18 08:20:00,28.7,21.5,29.94,SSE,154,6.0,20.0,74,0.00,,---,0.00,VWS V14.00,2013-03-18 12:20:00,
2013-03-18 08:25:00,28.8,21.6,29.93,SE,143,6.0,21.0,74,0.00,,---,0.00,VWS V14.00,2013-03-18 12:25:00,
2013-03-18 08:30:00,28.9,21.4,29.93,South,170,5.0,15.0,73,0.00,,---,0.00,VWS V14.00,2013-03-18 12:30:00,
2013-03-18 08:35:00,29.0,21.4,29.92,ESE,123,16.0,18.0,73,0.00,,---,0.00,VWS V14.00,2013-03-18 12:35:00,
2013-03-18 08:40:00,29.1,21.5,29.92,ESE,108,9.0,20.0,73,0.00,,---,0.00,VWS V14.00,2013-03-18 12:40:00,
2013-03-18 08:45:00,29.1,21.5,29.92,South,180,5.0,14.0,73,0.00,,---,0.00,VWS V14.00,2013-03-18 12:45:00,
2013-03-18 08:50:00,29.1,21.5,29.92,SE,134,6.0,19.0,73,0.00,,---,0.00,VWS V14.00,2013-03-18 12:50:00,
2013-03-18 08:55:00,29.2,22.0,29.91,ESE,109,6.0,19.0,74,0.00,,---,0.00,VWS V14.00,2013-03-18 12:55:00,
2013-03-18 09:00:00,29.2,22.0,29.91,ESE,110,11.0,14.0,74,0.00,,---,0.00,VWS V14.00,2013-03-18 13:00:00,
2013-03-18 09:05:00,29.2,22.3,29.91,South,182,0.0,16.0,75,0.00,,---,0.00,VWS V14.00,2013-03-18 13:05:00,
2013-03-18 09:10:00,29.2,22.6,29.90,SE,137,7.0,18.0,76,0.00,,---,0.00,VWS V14.00,2013-03-18 13:10:00,
2013-03-18 09:15:00,29.2,23.2,29.90,ESE,117,12.0,16.0,78,0.00,,---,0.00,VWS V14.00,2013-03-18 13:15:00,
2013-03-18 09:20:00,29.1,23.4,29.89,SW,215,8.0,16.0,79,0.00,,---,0.00,VWS V14.00,2013-03-18 13:20:00,
2013-03-18 09:25:00,29.2,23.8,29.89,South,171,6.0,17.0,80,0.00,,---,0.00,VWS V14.00,2013-03-18 13:25:00,
2013-03-18 09:30:00,29.2,24.1,29.89,SE,144,6.0,20.0,81,0.00,,---,0.00,VWS V14.00,2013-03-18 13:30:00,
2013-03-18 09:36:00,29.1,24.3,29.88,SE,132,15.0,20.0,82,0.00,,---,0.00,VWS V14.00,2013-03-18 13:36:00,
2013-03-18 09:41:00,29.0,24.2,29.89,ESE,122,6.0,20.0,82,0.00,,---,0.00,VWS V14.00,2013-03-18 13:41:00,
2013-03-18 09:45:00,29.0,24.5,29.89,SSW,197,5.0,9.0,83,0.00,,---,0.00,VWS V14.00,2013-03-18 13:45:00,
2013-03-18 09:50:00,29.0,24.8,29.89,SSE,157,6.0,23.0,84,0.00,,---,0.00,VWS V14.00,2013-03-18 13:50:00,
2013-03-18 09:56:00,29.0,24.8,29.89,SW,215,9.0,23.0,84,0.00,,---,0.00,VWS V14.00,2013-03-18 13:56:00,
2013-03-18 10:00:00,28.9,25.0,29.88,SSE,150,5.0,12.0,85,0.00,,---,0.00,VWS V14.00,2013-03-18 14:00:00,
2013-03-18 10:05:00,28.8,24.9,29.88,East,97,6.0,24.0,85,0.00,,---,0.00,VWS V14.00,2013-03-18 14:05:00,
2013-03-18 10:11:00,28.7,25.0,29.88,SSW,207,5.0,24.0,86,0.00,,---,0.00,VWS V14.00,2013-03-18 14:11:00,
2013-03-18 10:16:00,28.7,25.0,29.88,SE,134,6.0,25.0,86,0.00,,---,0.00,VWS V14.00,2013-03-18 14:16:00,
2013-03-18 10:21:00,28.6,25.2,29.87,East,86,3.0,25.0,87,0.00,,---,0.00,VWS V14.00,2013-03-18 14:21:00,
2013-03-18 10:26:00,28.5,25.1,29.87,East,83,7.0,25.0,87,0.00,,---,0.00,VWS V14.00,2013-03-18 14:26:00,
2013-03-18 10:31:00,28.5,25.4,29.87,SSW,211,2.0,13.0,88,0.00,,---,0.00,VWS V14.00,2013-03-18 14:31:00,
2013-03-18 10:36:00,28.5,25.4,29.87,ENE,68,6.0,15.0,88,0.00,,---,0.00,VWS V14.00,2013-03-18 14:36:00,
2013-03-18 10:41:00,28.5,25.4,29.87,SSW,200,11.0,23.0,88,0.00,,---,0.00,VWS V14.00,2013-03-18 14:41:00,
2013-03-18 10:46:00,28.5,25.7,29.86,ESE,119,13.0,19.0,89,0.00,,---,0.00,VWS V14.00,2013-03-18 14:46:00,
2013-03-18 10:50:00,28.5,25.7,29.86,East,90,14.0,19.0,89,0.00,,---,0.00,VWS V14.00,2013-03-18 14:50:00,
2013-03-18 10:55:00,28.7,25.9,29.85,SSE,165,9.0,19.0,89,0.00,,---,0.00,VWS V14.00,2013-03-18 14:55:00,
2013-03-18 11:00:00,28.8,26.0,29.85,SSE,158,4.0,11.0,89,0.00,,---,0.00,VWS V14.00,2013-03-18 15:00:00,
2013-03-18 11:05:00,28.9,26.1,29.84,ESE,117,6.0,16.0,89,0.00,,---,0.00,VWS V14.00,2013-03-18 15:05:00,
2013-03-18 11:10:00,29.0,26.2,29.84,SSW,195,5.0,18.0,89,0.00,,---,0.00,VWS V14.00,2013-03-18 15:10:00,
2013-03-18 11:15:00,29.2,26.4,29.83,SE,142,14.0,19.0,89,0.00,,---,0.00,VWS V14.00,2013-03-18 15:15:00,
2013-03-18 11:20:00,29.4,26.6,29.83,SSW,192,9.0,19.0,89,0.00,,---,0.00,VWS V14.00,2013-03-18 15:20:00,
2013-03-18 11:26:00,29.6,26.8,29.83,ESE,115,5.0,19.0,89,0.00,,---,0.00,VWS V14.00,2013-03-18 15:26:00,
2013-03-18 11:31:00,29.8,27.0,29.82,SE,130,9.0,18.0,89,0.00,,---,0.00,VWS V14.00,2013-03-18 15:31:00,
2013-03-18 11:36:00,30.0,27.2,29.82,SSE,155,1.0,21.0,89,0.00,,---,0.00,VWS V14.00,2013-03-18 15:36:00,
2013-03-18 11:41:00,30.2,27.4,29.82,SE,124,6.0,21.0,89,0.00,,---,0.00,VWS V14.00,2013-03-18 15:41:00,
2013-03-18 11:46:00,30.3,27.2,29.82,South,183,6.0,12.0,88,0.00,,---,0.00,VWS V14.00,2013-03-18 15:46:00,
2013-03-18 11:51:00,30.4,27.3,29.81,SSW,194,11.0,20.0,88,0.00,,---,0.00,VWS V14.00,2013-03-18 15:51:00,
2013-03-18 11:56:00,30.5,27.4,29.81,SE,142,8.0,22.0,88,0.00,,---,0.00,VWS V14.00,2013-03-18 15:56:00,
2013-03-18 12:01:00,30.5,27.4,29.81,SE,130,8.0,13.0,88,0.00,,---,0.00,VWS V14.00,2013-03-18 16:01:00,
2013-03-18 12:06:00,30.6,27.5,29.81,SSE,157,6.0,23.0,88,0.00,,---,0.00,VWS V14.00,2013-03-18 16:06:00,
2013-03-18 12:11:00,30.6,27.2,29.82,SE,137,6.0,23.0,87,0.00,,---,0.00,VWS V14.00,2013-03-18 16:11:00,
2013-03-18 12:16:00,30.6,27.2,29.82,SSE,157,5.0,13.0,87,0.00,,---,0.00,VWS V14.00,2013-03-18 16:16:00,
2013-03-18 12:21:00,30.6,27.2,29.81,ESE,104,9.0,14.0,87,0.00,,---,0.00,VWS V14.00,2013-03-18 16:21:00,
2013-03-18 12:26:00,30.7,27.3,29.81,SE,131,6.0,14.0,87,0.00,,---,0.00,VWS V14.00,2013-03-18 16:26:00,
2013-03-18 12:31:00,30.7,27.6,29.81,SSE,157,7.0,12.0,88,0.00,,---,0.00,VWS V14.00,2013-03-18 16:31:00,
2013-03-18 12:36:00,30.8,27.7,29.81,ESE,109,7.0,16.0,88,0.00,,---,0.00,VWS V14.00,2013-03-18 16:36:00,
2013-03-18 12:41:00,30.9,27.8,29.80,South,177,5.0,16.0,88,0.00,,---,0.00,VWS V14.00,2013-03-18 16:41:00,
2013-03-18 12:46:00,31.0,27.9,29.80,SSE,163,9.0,16.0,88,0.00,,---,0.00,VWS V14.00,2013-03-18 16:46:00,
2013-03-18 12:51:00,31.1,28.0,29.81,SE,128,2.0,17.0,88,0.00,,---,0.00,VWS V14.00,2013-03-18 16:51:00,
2013-03-18 12:56:00,31.1,28.0,29.80,SE,125,4.0,17.0,88,0.00,,---,0.00,VWS V14.00,2013-03-18 16:56:00,
2013-03-18 13:01:00,31.2,28.1,29.80,SSW,207,5.0,15.0,88,0.00,,---,0.00,VWS V14.00,2013-03-18 17:01:00,
2013-03-18 13:06:00,31.2,28.1,29.80,SE,140,6.0,15.0,88,0.00,,---,0.00,VWS V14.00,2013-03-18 17:06:00,
2013-03-18 13:11:00,31.2,28.1,29.80,South,186,8.0,15.0,88,0.00,,---,0.00,VWS V14.00,2013-03-18 17:11:00,
2013-03-18 13:17:00,31.2,28.1,29.80,SW,228,3.0,13.0,88,0.00,,---,0.00,VWS V14.00,2013-03-18 17:17:00,
2013-03-18 13:22:00,31.1,27.7,29.80,ESE,112,8.0,17.0,87,0.00,,---,0.00,VWS V14.00,2013-03-18 17:22:00,
2013-03-18 13:27:00,31.2,28.1,29.80,SSW,192,9.0,17.0,88,0.00,,---,0.00,VWS V14.00,2013-03-18 17:27:00,
2013-03-18 13:32:00,31.1,28.0,29.79,ESE,111,6.0,13.0,88,0.00,,---,0.00,VWS V14.00,2013-03-18 17:32:00,
2013-03-18 13:37:00,31.0,27.9,29.79,South,173,10.0,13.0,88,0.00,,---,0.00,VWS V14.00,2013-03-18 17:37:00,
2013-03-18 13:42:00,30.9,27.8,29.78,South,178,0.0,15.0,88,0.00,,---,0.00,VWS V14.00,2013-03-18 17:42:00,
2013-03-18 13:47:00,30.9,28.0,29.78,ENE,69,3.0,16.0,89,0.00,,---,0.00,VWS V14.00,2013-03-18 17:47:00,
2013-03-18 13:52:00,30.8,28.0,29.77,SW,221,8.0,18.0,89,0.00,,---,0.00,VWS V14.00,2013-03-18 17:52:00,
2013-03-18 13:57:00,30.9,28.0,29.77,ESE,113,7.0,18.0,89,0.00,,---,0.00,VWS V14.00,2013-03-18 17:57:00,
2013-03-18 14:02:00,30.8,28.0,29.76,SE,135,6.0,15.0,89,0.00,,---,0.00,VWS V14.00,2013-03-18 18:02:00,
2013-03-18 14:07:00,30.9,28.0,29.76,SE,142,4.0,16.0,89,0.00,,---,0.00,VWS V14.00,2013-03-18 18:07:00,
2013-03-18 14:12:00,31.0,28.1,29.75,SE,145,6.0,16.0,89,0.00,,---,0.00,VWS V14.00,2013-03-18 18:12:00,
2013-03-18 14:17:00,31.1,28.2,29.75,SSE,168,7.0,9.0,89,0.00,,---,0.00,VWS V14.00,2013-03-18 18:17:00,
2013-03-18 14:22:00,31.2,28.3,29.75,SE,124,5.0,12.0,89,0.00,,---,0.00,VWS V14.00,2013-03-18 18:22:00,
2013-03-18 14:27:00,31.2,28.3,29.74,SE,140,7.0,15.0,89,0.00,,---,0.00,VWS V14.00,2013-03-18 18:27:00,
2013-03-18 14:32:00,31.3,28.4,29.74,South,179,7.0,12.0,89,0.00,,---,0.00,VWS V14.00,2013-03-18 18:32:00,
2013-03-18 14:37:00,31.4,28.5,29.74,SSE,161,9.0,15.0,89,0.00,,---,0.00,VWS V14.00,2013-03-18 18:37:00,
2013-03-18 14:42:00,31.4,28.5,29.74,SSE,163,6.0,18.0,89,0.00,,---,0.00,VWS V14.00,2013-03-18 18:42:00,
2013-03-18 14:47:00,31.4,28.8,29.73,South,170,4.0,18.0,90,0.00,,---,0.00,VWS V14.00,2013-03-18 18:47:00,
2013-03-18 14:52:00,31.4,28.8,29.73,SSW,192,6.0,18.0,90,0.00,,---,0.00,VWS V14.00,2013-03-18 18:52:00,
2013-03-18 14:57:00,31.4,28.8,29.73,South,187,6.0,18.0,90,0.00,,---,0.00,VWS V14.00,2013-03-18 18:57:00,
2013-03-18 15:02:00,31.4,28.8,29.73,SSW,193,8.0,12.0,90,0.00,,---,0.00,VWS V14.00,2013-03-18 19:02:00,
2013-03-18 15:07:00,31.3,28.7,29.73,SE,144,9.0,14.0,90,0.00,,---,0.00,VWS V14.00,2013-03-18 19:07:00,
2013-03-18 15:12:00,31.3,28.7,29.73,SSW,195,5.0,16.0,90,0.00,,---,0.00,VWS V14.00,2013-03-18 19:12:00,
2013-03-18 15:17:00,31.3,28.7,29.72,South,180,6.0,14.0,90,0.00,,---,0.00,VWS V14.00,2013-03-18 19:17:00,
2013-03-18 15:22:00,31.3,28.7,29.72,ESE,103,6.0,15.0,90,0.00,,---,0.00,VWS V14.00,2013-03-18 19:22:00,
2013-03-18 15:27:00,31.4,28.8,29.72,SSW,196,6.0,15.0,90,0.00,,---,0.00,VWS V14.00,2013-03-18 19:27:00,
2013-03-18 15:32:00,31.4,28.8,29.71,SSE,166,9.0,11.0,90,0.00,,---,0.00,VWS V14.00,2013-03-18 19:32:00,
2013-03-18 15:37:00,31.4,29.1,29.71,SW,227,3.0,13.0,91,0.00,,---,0.00,VWS V14.00,2013-03-18 19:37:00,
2013-03-18 15:42:00,31.4,29.1,29.71,South,184,3.0,19.0,91,0.00,,---,0.00,VWS V14.00,2013-03-18 19:42:00,